sat.trackr.live / text

‹ back to catalog

ICEYE-X63

NORAD 67372 · 2026-004K

PAYLOAD ACTIVE UNKNOWN

§ Identity

Operator
Country
FIN
Launch date
2026-01-11
Launch site
AFWTR
Launch vehicle
Mass (kg)
RCS (m²)

External: N2YO · Heavens-Above · Gunter

§ Orbital elements

Epoch: 2026-09-20T22:47:41.322912Z

Period
96.75 min
Inclination
97.8075°
Eccentricity
0.0004574
Mean motion
14.88443057 rev/d
Perigee alt
599.6 km
Apogee alt
606.0 km
Semi-major
6,980.9 km
B*
6.1671e-5
RAAN
261.1336°
Arg perigee
154.8529°
Mean anomaly
205.2911°
Rev number
3,754

§ Raw data

ICEYE-X631 67372U 26004K   26263.94978383  .00000518  00000+0  61671-4 0  99952 67372  97.8075 261.1336 0004574 154.8529 205.2911 14.88443057 37542

JSON: /api/v1/satellites/67372 · /tle

For live sub-satellite position, see the globe view (requires WebGL).

§ Visibility from observer

Set your observer location to see the next 7 days of passes ≥ 10°. The values pass through the URL so the page stays shareable.

No JS? Fill the form by hand. The geolocation button needs JavaScript.

§ Radio — SatNOGS DB

ModeDescriptionDownlinkUplink
UNKNOWN S-band telemetry 2.264 GHz

1 transmitter · refreshed weekly from db.satnogs.org